Weather in Larnaca

Cyprus     34°55′03″N   33°37′52″E
temp.,
°C
wind,
m/s
gust,
m/s
humid.,
%
clouds,
%
prec.,
mm/h
press.,
hPa
HPBL,
m
12 april, mon
mon1200:00+12ene12520 0.0 1019687
03:00+12nnw22541 0.0 101887
06:00+11nw22595 0.0 1019107
09:00+14ne124343 0.0 1020529
12:00+15ene1242100 0.0 10201252
15:00+14nne32557 0.2 10201037
18:00+15ssw225164 0.0 1019885
21:00+13sw33610 0.0 1020341
13 april, tue
tue1300:00+12nw34580 0.0 1020142
03:00+11nw33630 0.0 1020108
06:00+11wnw45630 0.0 1020116
09:00+15wnw44520 0.0 1020486
12:00+17s43422 0.0 10201047
15:00+17ssw87472 0.0 1019873
18:00+17sw77521 0.0 1019831
21:00+15nw45630 0.0 1020161
14 april, wed
wed1400:00+13nw44661 0.0 1020132
03:00+13nnw33670 0.0 102096
06:00+13nnw23695 0.0 102096
09:00+15ne1157100 0.0 1020313
12:00+17sse42555 0.0 1020678
15:00+18s435499 0.0 1019487
18:00+17s33535 0.0 1018323
21:00+16sw11600 0.0 1018108
15 april, thu
thu1500:00+15n22645 0.0 101897
03:00+14nne2271100 0.0 101782
06:00+14ne1272100 0.0 101782
09:00+17ene1164100 0.0 1017236
12:00+19s3257100 0.0 1017521
15:00+19sse44574 0.0 1016416
18:00+19s32590 0.0 1015250
21:00+17ssw11710 0.0 101611
16 april, fri
fri1600:00+17sw22700 0.0 101521
03:00+16nnw22685 0.0 101526
06:00+15nnw336534 0.0 101560
09:00+18nne22530 0.0 1015272
12:00+20sse325440 0.0 1016635
15:00+20sse5460100 0.0 1015496
18:00+19sse3263100 0.0 1015192
21:00+18sse1169100 0.0 101511